This demonstration page uses our WeatherBlox Daily Observations layout. Learn more.

Left ArrowRight Arrow

47.50024, -111.30081

Hourly Observations for April 19, 2018

Temp ( °F °C ) Dew Point ( °F °C ) Humidity (%) Winds ( mph kmh ) Pressure ( in mb ) Visibility ( mi km ) Precip ( " mm )
12:53 am 00:53 Clear 36 2.2 25 -3.9 64 64 E 9 15 30.20 1023 10 16 0.00 0.00
1:53 am 01:53 Clear 35 1.7 25 -3.9 67 67 ENE 7 11 30.19 1022 10 16 0.00 0.00
2:53 am 02:53 Clear 32 0 25 -3.9 75 75 Calm 30.19 1022 10 16 0.00 0.00
3:53 am 03:53 Clear 31 -0.6 24 -4.4 76 76 W 6 9 30.19 1023 10 16 0.00 0.00
4:53 am 04:53 Clear 28 -2.2 24 -4.4 85 85 WSW 7 11 30.21 1023 10 16 0.00 0.00
5:53 am 05:53 Clear 30 -1.1 26 -3.3 85 85 WSW 3 6 30.21 1023 10 16 0.00 0.00
6:53 am 06:53 Sunny 30 -1.1 26 -3.3 85 85 Calm 30.21 1023 10 16 0.00 0.00
7:53 am 07:53 Sunny 33 0.6 28 -2.2 82 82 SW 6 9 30.21 1023 10 16 0.00 0.00
8:53 am 08:53 Sunny 36 2.2 28 -2.2 73 73 WSW 5 7 30.22 1023 10 16 0.00 0.00
9:53 am 09:53 Sunny 39 3.9 29 -1.7 67 67 WNW 6 9 30.22 1023 10 16 0.00 0.00
10:53 am 10:53 Sunny 44 6.7 29 -1.7 55 55 VRB 5 7 30.20 1023 10 16 0.00 0.00
11:53 am 11:53 Sunny 47 8.3 26 -3.3 44 44 VRB 3 6 30.19 1023 10 16 0.00 0.00
12:53 pm 12:53 Sunny 51 10.6 27 -2.8 39 39 undefined N/A 30.16 1021 10 16 0.00 0.00
1:53 pm 13:53 Sunny 54 12.2 28 -2.2 37 37 NE 7 11 30.13 1020 10 16 0.00 0.00
2:53 pm 14:53 Sunny 57 13.9 29 -1.7 34 34 SE 5 7 30.11 1020 10 16 0.00 0.00
3:53 pm 15:53 Sunny 57 13.9 26 -3.3 30 30 Calm 30.10 1019 10 16 0.00 0.00
4:53 pm 16:53 Sunny 60 15.6 28 -2.2 30 30 VRB 7 11 30.08 1019 10 16 0.00 0.00
5:53 pm 17:53 Sunny 60 15.6 28 -2.2 30 30 NNW 10 17 30.08 1019 10 16 0.00 0.00
6:53 pm 18:53 Sunny 58 14.4 29 -1.7 33 33 NNE 12 19 30.09 1019 10 16 0.00 0.00
7:53 pm 19:53 Sunny 54 12.2 30 -1.1 40 40 NNE 10 17 30.09 1019 10 16 0.00 0.00
8:53 pm 20:53 Mostly Clear 49 9.4 32 0 52 52 NNE 8 13 30.10 1019 10 16 0.00 0.00
9:53 pm 21:53 Mostly Cloudy 48 8.9 32 0 54 54 N 10 17 30.11 1020 10 16 0.00 0.00
10:53 pm 22:53 Clear 42 5.6 31 -0.6 65 65 Calm 30.11 1020 10 16 0.00 0.00
11:53 pm 23:53 Clear 35 1.7 31 -0.6 85 85 SW 12 19 30.13 1020 10 16 0.00 0.00

Powered by AerisWeather